Tracking 29892 objects as of 21-Nov-2024
HD Live streaming from Space Station
objects crossing your sky now

STARLINK-5314

Track STARLINK-5314 now!
10-day predictions
STARLINK-5314 is classified as:


NORAD ID: 55678
Int'l Code: 2023-021BC
Perigee: 577.2 km
Apogee: 581.2 km
Inclination: 70.0 °
Period: 96.1 minutes
Semi major axis: 6950 km
RCS: Unknown
Launch date: February 17, 2023
Source: United States (US)
Launch site: AIR FORCE WESTERN TEST RANGE (AFWTR)
Your satellite tracking list
Your tracking list is empty




NASA's NSSDC Master Catalog

Two Line Element Set (TLE):
1 55678U 23021BC  24325.86895171  .00000476  00000-0  47709-4 0  9998
2 55678  69.9994 279.0042 0002876 265.5317  94.5513 14.98330517 98011
Source of the keplerian elements: AFSPC